• Join FlightAware (Why Join?)
  • Login
  • US Flag 
11:30PM EDT


 

Airport Tracker/Info


-or-


 

Live Flight TrackerFlight Track Log ✈ N8715U ✈ 02-Dec-2012 ✈ KCRG

Flight Track Log - Related Links

Times and Time Zones

All times are in EST time to prevent confusion due to time zone crossing. See the N8715U flight status page for this flight to view local times or setup timezone preferences in your user account.

Time Position Orientation Groundspeed Altitude Reporting Facility
EST Latitude Longitude Course Direction KTS MPH feet Rate Location/Type
03:43PM 30.2133 -82.3853 83° East 104 120 3,700  Level Jacksonville Center
03:43PM 30.2153 -82.3661 83° East 105 121 3,700 60 Level Jacksonville Center
03:44PM 30.2194 -82.3350 81° East 96 110 3,800  Climbing Jacksonville Center
03:45PM 30.2214 -82.3036 86° East 100 115 3,800 -60 Level Jacksonville Center
03:46PM 30.2233 -82.2700 86° East 99 114 3,700 -180 Descending Jacksonville Center
03:47PM 30.2231 -82.2411 91° East 98 113 3,500  Descending Jacksonville Center
03:48PM 30.2292 -82.2122 76° East 100 115 3,700 120 Climbing Jacksonville Center
03:49PM 30.2292 -82.1858 90° East 91 105 3,800 60 Climbing Jacksonville Center
03:50PM 30.2372 -82.1497 76° East 95 109 3,900  Climbing Jacksonville Center
03:51PM 30.2392 -82.1183 86° East 106 122 3,800 -120 Descending Jacksonville Center
03:52PM 30.2472 -82.0869 73° East 100 115 3,700 -60 Descending Jacksonville Center
03:54PM 30.2511 -82.0486 83° East 96 110 3,700  Level Jacksonville Center
03:55PM 30.2572 -82.0197 76° East 96 110 3,700  Level Jacksonville Center
03:56PM 30.2611 -81.9908 81° East 94 108 3,700  Level Jacksonville Center
03:57PM 30.2653 -81.9594 81° East 96 110 3,800  Climbing Jacksonville Center
03:58PM 30.2711 -81.9281 78° East 100 115 3,800  Level Jacksonville Center
03:59PM 30.2772 -81.8944 78° East 100 115 3,800 -60 Level Jacksonville Center
04:00PM 30.2833 -81.8631 77° East 103 119 3,700 -60 Descending Jacksonville Center
04:01PM 30.2872 -81.8317 82° East 100 115 3,700 -120 Level Jacksonville Center
04:02PM 30.2869 -81.7981 91° East 98 113 3,500 -240 Descending Jacksonville Center
04:03PM 30.2928 -81.7667 78° East 100 115 3,300 -300 Descending Jacksonville Center
04:04PM 30.2947 -81.7306 86° East 105 121 2,900 -360 Descending Jacksonville Center
04:05PM 30.2986 -81.7017 81° East 105 121 2,600 -360 Descending Jacksonville Center
04:06PM 30.3044 -81.6703 78° East 103 119 2,300 -360 Descending Jacksonville Center
04:07PM 30.3083 -81.6342 83° East 104 120 2,000 -360 Descending Jacksonville Center
04:08PM 30.3081 -81.5981 91° East 98 113 1,600 -480 Descending Jacksonville Center
04:09PM 30.3036 -81.5717 101° East 93 107 1,100 -420 Descending Jacksonville Center
04:10PM 30.3075 -81.5453 80° East 85 98 900 -300 Descending Jacksonville Center
04:11PM 30.3197 -81.5306 46° Northeast 74 85 600 -300 Descending Jacksonville Center
04:13PM 30.3363 -81.5144 79° East  Level Estimated
04:20PM 30.3363 -81.5144 79° East  Level Estimated
04:21PM 30.3363 -81.5144 79° East  Level Estimated